DateTimeUTC,F1_A11,F1_S11,BsB_S11,BsG_S11,BsR_S11,BbsB_S11,BbsG_S11,BbsR_S11,BaB_A11,BaG_A11,BaR_A11,Tu_S11,T_S11,Uu_S11,U_S11,P_S11,T1_A11
2021-09-12T00:00:00Z,00000200,21000000,,,,,,,-000.11,-000.04,0000.07,19.3,26.3,,00.0,0667.6,31.1
2021-09-12T00:01:00Z,00000200,21000000,,,,,,,0000.12,-000.04,-000.05,19.3,26.4,,00.0,0667.6,31.1
2021-09-12T00:02:00Z,00000200,21000000,,,,,,,0000.06,-000.03,0000.28,19.3,26.4,,00.0,0667.6,31.1
2021-09-12T00:03:00Z,00000200,61000000,,,,,,,0000.01,-000.19,-000.25,19.3,26.4,,00.0,0667.6,31.1
2021-09-12T00:04:00Z,00000200,41000000,0000.25,0000.81,0000.09,-000.12,0000.25,-000.17,-000.15,0000.04,-000.03,19.8,26.4,,00.0,0668.5,31.1
2021-09-12T00:05:00Z,00000200,01000000,0000.43,0000.88,0000.43,0000.04,-000.14,0000.15,0000.42,0000.32,0000.20,19.8,26.3,,00.0,0668.6,31.1
2021-09-12T00:06:00Z,00000200,01000000,0001.41,0000.46,0000.38,0000.44,0000.09,0000.44,-000.07,-000.30,0000.15,19.8,26.3,,00.0,0668.6,31.1
2021-09-12T00:07:00Z,00000200,01000000,0000.63,0000.90,0000.16,0000.46,0000.01,-000.19,-000.24,0000.13,-000.39,19.7,26.3,,00.0,0668.5,31.1
2021-09-12T00:08:00Z,00000200,01000000,0000.62,0000.82,0000.51,0000.92,0000.04,0000.44,-000.06,0000.06,-000.21,19.6,26.2,,00.0,0668.5,31.1
2021-09-12T00:09:00Z,00000200,01000000,0000.63,0000.47,0000.54,-000.02,0000.28,0000.22,0000.19,-000.21,0000.03,19.5,26.1,,00.0,0668.5,31.1
2021-09-12T00:10:00Z,00000200,01000000,0000.25,0000.59,0000.46,0000.12,-000.06,0000.11,0000.10,-000.11,-000.05,19.4,26.1,,00.0,0668.4,31.0
2021-09-12T00:11:00Z,00000200,01000000,0001.14,0000.45,0000.43,-000.01,0000.37,-000.19,0000.29,0000.28,0000.43,19.3,26.0,,00.0,0668.4,31.0
2021-09-12T00:12:00Z,00000200,01000000,0000.24,0000.39,-000.19,-000.41,-000.02,-000.44,0000.76,0000.80,0000.72,19.2,26.0,,00.0,0668.4,31.0
2021-09-12T00:13:00Z,00000200,01000000,0000.49,0000.85,0000.07,0000.41,-000.14,-000.25,0000.02,0000.18,-000.10,19.3,26.0,,00.0,0668.4,31.1
2021-09-12T00:14:00Z,00000200,01000000,0000.89,0000.84,0000.39,0000.36,0000.31,-000.06,0000.31,0000.26,0000.62,19.3,26.0,,00.0,0668.4,31.1
2021-09-12T00:15:00Z,00000200,01000000,0000.16,0000.81,0000.39,0000.22,0000.03,0000.31,0000.46,0000.41,0000.06,19.4,26.0,,00.0,0668.4,31.1
2021-09-12T00:16:00Z,00000200,01000000,0000.11,0000.29,0000.38,0000.21,0000.27,-000.14,-000.15,0000.33,-000.08,19.5,26.1,,00.0,0668.4,31.1
2021-09-12T00:17:00Z,00000200,01000000,0000.75,0000.81,0000.22,0000.99,0000.13,0000.05,0000.00,-000.12,0000.01,19.6,26.1,,00.0,0668.4,31.1
2021-09-12T00:18:00Z,00000200,01000000,0000.68,0000.64,0000.04,0000.48,0000.15,0000.26,0000.75,0000.33,0000.32,19.6,26.1,,00.0,0668.4,31.1
2021-09-12T00:19:00Z,00000200,01000000,0001.15,0000.42,0000.16,0000.62,-000.17,0000.34,-000.26,0000.21,0000.23,19.7,26.2,,00.0,0668.3,31.1
2021-09-12T00:20:00Z,00000200,01000000,0000.38,0000.59,0000.39,-000.16,0000.11,0000.15,0000.15,-000.04,-000.20,19.7,26.2,,00.0,0668.4,31.1
2021-09-12T00:21:00Z,00000200,01000000,0001.23,0000.28,0000.58,0000.29,0000.09,0000.23,0000.19,-000.22,0000.01,19.7,26.2,,00.0,0668.4,31.1
2021-09-12T00:22:00Z,00000200,01000000,0000.84,0000.08,0000.36,0000.60,0000.13,0000.06,-000.05,-000.17,0000.21,19.6,26.2,,00.0,0668.4,31.1
2021-09-12T00:23:00Z,00000200,01000000,0000.63,0000.76,0000.67,0000.45,0000.06,0000.09,0000.16,0000.18,-000.24,19.5,26.1,,00.0,0668.3,31.1
2021-09-12T00:24:00Z,00000200,01000000,0001.09,0000.45,0000.35,0000.00,0000.20,-000.11,-000.05,0000.03,0000.10,19.4,26.0,,00.0,0668.3,31.0
2021-09-12T00:25:00Z,00000200,01000000,0000.85,0000.82,0000.20,0000.28,0000.23,-000.01,0000.08,-000.20,-000.19,19.3,26.0,,00.0,0668.3,31.0
2021-09-12T00:26:00Z,00000200,01000000,-000.12,0000.66,0000.44,0000.87,0000.32,-000.15,0000.24,0000.45,0000.73,19.2,25.9,,00.0,0668.3,31.0
2021-09-12T00:27:00Z,00000200,01000000,0001.07,0000.46,0000.39,0001.32,-000.03,0000.01,0000.12,0000.34,0000.02,19.2,25.9,,00.0,0668.3,31.0
2021-09-12T00:28:00Z,00000200,01000000,0001.38,0000.59,0000.40,-000.25,0000.63,-000.09,0000.50,0000.32,0000.18,19.2,25.9,,00.0,0668.3,31.0
2021-09-12T00:29:00Z,00000200,01000000,0001.18,0000.54,0000.44,0001.07,0000.34,0000.07,0000.25,0000.55,0000.48,19.2,25.9,,00.0,0668.3,31.1
2021-09-12T00:30:00Z,00000200,01000000,0001.33,0001.00,0000.27,0000.39,0000.25,0000.03,0000.34,0000.27,0000.22,19.3,25.9,,00.0,0668.3,31.1
2021-09-12T00:31:00Z,00000200,01000000,0000.58,0000.62,0000.30,0000.09,0000.07,-000.36,0000.08,0000.20,0000.37,19.4,26.0,,00.0,0668.3,31.1
2021-09-12T00:32:00Z,00000200,01000000,0000.06,0000.62,0000.42,0000.81,0000.38,-000.20,0000.53,0000.29,-000.04,19.5,26.0,,00.0,0668.3,31.1
2021-09-12T00:33:00Z,00000200,01000000,0000.94,0000.64,0000.24,0000.35,0000.27,0000.28,0000.25,0000.22,0000.52,19.5,26.0,,00.0,0668.3,31.1
2021-09-12T00:34:00Z,00000200,01000000,0001.42,0000.89,0000.17,0000.03,0000.22,0000.07,0000.12,0000.17,-000.20,19.6,26.1,,00.0,0668.3,31.1
2021-09-12T00:35:00Z,00000200,01000000,0001.11,0000.95,0000.17,0000.50,0000.34,-000.26,0000.64,0000.06,0000.24,19.6,26.1,,00.0,0668.3,31.1
2021-09-12T00:36:00Z,00000200,01000000,0000.44,0000.90,0000.53,0000.29,0000.00,-000.24,-000.20,0000.14,0000.06,19.6,26.1,,00.0,0668.3,31.1
2021-09-12T00:37:00Z,00000200,01000000,0000.71,0000.68,0000.27,0000.16,-000.15,0000.10,-000.09,0000.12,0000.01,19.5,26.1,,00.0,0668.3,31.1
2021-09-12T00:38:00Z,00000200,01000000,0000.68,0000.76,0000.43,0000.29,0000.26,0000.15,0000.08,-000.20,-000.20,19.4,26.0,,00.0,0668.3,31.1
2021-09-12T00:39:00Z,00000200,01000000,0001.03,0000.54,0000.24,0000.37,0000.35,0000.21,0000.23,0000.02,-000.01,19.3,25.9,,00.0,0668.2,31.0
2021-09-12T00:40:00Z,00000200,01000000,0000.22,0000.81,0000.46,-000.02,0000.20,-000.15,-000.15,0000.20,0000.14,19.2,25.9,,00.0,0668.3,31.0
2021-09-12T00:41:00Z,00000200,01000000,0000.96,0000.57,0000.30,0000.78,-000.00,-000.30,0000.71,0000.53,0000.24,19.1,25.8,,00.0,0668.2,31.0
2021-09-12T00:42:00Z,00000200,01000000,0000.44,0000.82,0000.09,0000.42,0000.02,-000.10,0000.50,0000.55,0000.53,19.1,25.8,,00.0,0668.3,31.0
2021-09-12T00:43:00Z,00000200,01000000,0000.77,0000.35,0000.38,0000.29,0000.09,-000.23,0000.17,0000.26,0000.07,19.2,25.8,,00.0,0668.3,31.0
2021-09-12T00:44:00Z,00000200,01000000,0001.22,0000.69,0000.03,-000.03,0000.10,0000.04,0000.27,0000.12,0000.52,19.2,25.8,,00.0,0668.2,31.1
2021-09-12T00:45:00Z,00000200,01000000,0000.44,0000.47,0000.48,0000.33,-000.10,-000.12,0000.23,0000.51,-000.10,19.3,25.9,,00.0,0668.3,31.1
2021-09-12T00:46:00Z,00000200,01000000,0001.62,0000.61,0000.36,0000.37,-000.13,0000.08,0000.36,0000.15,0000.30,19.4,25.9,,00.0,0668.3,31.1
2021-09-12T00:47:00Z,00000200,01000000,0001.18,0000.97,0000.59,0000.11,0000.01,0000.25,0000.24,0000.40,0000.36,19.4,25.9,,00.0,0668.2,31.1
2021-09-12T00:48:00Z,00000200,01000000,0001.02,0000.50,0000.41,0000.38,0000.13,-000.06,0000.14,-000.06,0000.42,19.5,26.0,,00.0,0668.2,31.1
2021-09-12T00:49:00Z,00000200,01000000,0000.01,0000.48,0000.40,0000.08,0000.31,-000.10,0000.37,0000.51,0000.39,19.6,26.0,,00.0,0668.2,31.1
2021-09-12T00:50:00Z,00000200,01000000,0000.41,0000.66,0000.12,0000.33,0000.09,-000.14,0000.23,0000.09,-000.25,19.6,26.1,,00.0,0668.2,31.1
2021-09-12T00:51:00Z,00000200,01000000,0000.85,0000.53,0000.17,0000.49,0000.06,-000.05,0000.49,0000.44,0000.27,19.6,26.1,,00.0,0668.2,31.1
2021-09-12T00:52:00Z,00000200,01000000,0000.58,0000.98,0000.38,0000.49,0000.29,-000.12,0000.15,0000.16,-000.36,19.6,26.0,,00.0,0668.1,31.1
2021-09-12T00:53:00Z,00000200,01000000,0000.04,0000.72,0000.68,0000.47,-000.04,0000.34,-000.13,-000.04,0000.19,19.5,26.0,,00.0,0668.1,31.1
2021-09-12T00:54:00Z,00000200,01000000,0000.93,0000.84,0000.63,0000.10,0000.29,0000.12,-000.24,0000.02,0000.05,19.4,26.0,,00.0,0668.1,31.1
2021-09-12T00:55:00Z,00000200,01000000,0000.59,0000.72,0000.58,0000.28,-000.03,0000.21,0000.34,-000.09,0000.16,19.3,25.9,,00.0,0668.0,31.0
2021-09-12T00:56:00Z,00000200,01000000,0001.43,0000.56,0000.38,0000.43,0000.20,-000.22,0000.46,0000.45,0000.28,19.2,25.8,,00.0,0668.0,31.0
2021-09-12T00:57:00Z,00000200,41000000,,,,,,,0000.55,0000.29,0000.29,19.2,25.9,,00.0,0668.0,31.0
2021-09-12T00:58:00Z,00000200,61000000,,,,,,,0000.03,0000.52,-000.01,18.9,26.0,,00.0,0667.0,31.0
2021-09-12T00:59:00Z,00000200,21000000,,,,,,,0000.26,-000.05,0000.33,18.9,26.1,,00.0,0667.0,31.0
